User: anonymous   Login
Location: Unspecified
(0.0000°N, 0.0000°E)
Time: 00:50:30
(UTC+00:00)
Language:

LEMUR 2 STELLA - Orbit

View from above orbital plane
View from above orbital plane
View from above satellite
View from above satellite

Ground track
Ground track

The orbit is defined by the following mean orbital elements,

1 60533U          26145.50779912 +.00000000 +00000-0 +70934-3 0 00004
2 60533  97.6735 227.8736 0002020 111.7698 248.3747 15.11226400    05
Epoch (UTC): 25 May 2026 12:11:13
Eccentricity: 0.0002020
inclination: 97.6735°
perigee height: 531 km
apogee height: 534 km
right ascension of ascending node: 227.8736°
argument of perigee: 111.7698°
revolutions per day: 15.11226400
mean anomaly at epoch: 248.3747°

The dashed part of the orbit path shows where the satellite is in the earth's shadow,  

DLR